Regional Weather Roundup
Issued by NWS

Home | Current Version | Previous Version | Graphics & Text | Print | Product List | Glossary On
Versions: 1 2 3 4 5 6 7 8 9 10 11 12 13 14 15 16 17 18 19 20 21 22 23 24 25 26 27 28 29 30 31 32 33 34 35 36 37 38 39 40 41 42 43 44 45 46 47 48 49 50
000
ASUS43 KTOP 302208
RWRKS

WEATHER ROUNDUP FOR KANSAS
NATIONAL WEATHER SERVICE GOODLAND KS
500 PM CDT FRI SEP 30 2016

NOTE:  "FAIR" INDICATES FEW OR NO CLOUDS BELOW 12,000 FEET WITH NO
SIGNIFICANT WEATHER AND/OR OBSTRUCTIONS TO VISIBILITY.

KSZ001>006-013>018-027>032-041>047-302300-
NORTHWEST KANSAS

CITY           SKY/WX    TMP DP  RH WIND       PRES   REMARKS
GOODLAND       MOSUNNY   73  46  38 SE17G23   30.12S
HAYS           MOSUNNY   72  43  35 E12       30.14F
HILL CITY      MOSUNNY   69  48  47 E9        30.15F
RUSSELL        PTSUNNY   73  44  35 S10       30.14F
$$

KSZ061>065-074>080-084>089-302300-
SOUTHWEST KANSAS

CITY           SKY/WX    TMP DP  RH WIND       PRES   REMARKS
DODGE CITY     SUNNY     76  45  33 SE12      30.13F
ELKHART          N/A     78  49  36 SE16        N/A
GARDEN CITY    SUNNY     78  47  33 SE20G26   30.10F
GREAT BEND     PTSUNNY   72  45  37 E8        30.14F
LIBERAL        CLOUDY    77  48  36 S17       30.11F
PRATT          PTSUNNY   69  43  38 S6        30.14F
$$

KSZ066>073-081>083-090>101-302300-
SOUTHEAST KANSAS

CITY           SKY/WX    TMP DP  RH WIND       PRES   REMARKS
CHANUTE        SUNNY     76  49  38 N6        30.12F
COFFEYVILLE    SUNNY     77  47  34 VRB5      30.12F
HUTCHINSON     MOSUNNY   73  44  35 E5        30.14F
MEDICINE LODGE   N/A     72  46  39 SE5       30.14S
NEWTON         MOSUNNY   71  48  43 SE6       30.16F
PARSONS        SUNNY     77  49  37 N5        30.13F
WICHITA INTL   MOSUNNY   73  47  39 VRB5      30.13F
WICHITA JABRA  MOSUNNY   73  48  41 CALM      30.14F
WICHITA MCCONL PTSUNNY   73  48  41 VRB1      30.14F
WINFIELD       CLOUDY    74  49  41 CALM      30.14F
$$

KSZ007>012-019>026-033>040-048>060-102>105-302300-
NORTHEAST KANSAS

CITY           SKY/WX    TMP DP  RH WIND       PRES   REMARKS
CONCORDIA      MOSUNNY   72  46  39 S6        30.16F
EMPORIA        SUNNY     73  48  41 N7        30.14F
LAWRENCE       SUNNY     75  48  38 N6        30.13F
MANHATTAN      CLOUDY    75  50  41 CALM      30.14F
MARYSVILLE     SUNNY     72  45  37 E5        30.15F
OLATHE IND     SUNNY     73  46  38 N8        30.13F
OLATHE EXE     SUNNY     73  43  33 N6        30.13S
SALINA         MOSUNNY   74  46  36 E7        30.15F
TOPEKA BILLARD SUNNY     74  50  42 NE6       30.13F
TOPEKA FORBES  SUNNY     74  49  41 N6        30.14F
$$



USA.gov is the U.S. government's official web portal to all federal, state and local government web resources and services.